Home   Weather   Yekaterinburg   Past weeks

Flag for Russia Past Weather in Yekaterinburg, Russia — Yesterday and Last 2 Weeks

34 °F


Feels Like: 27 °F
Forecast: 26 / 33 °F
Wind: 8 mph from Southwest

Location: Ekaterinburg

Current Time: Oct 26, 2016 at 5:33:41 AM

Latest Report: Oct 26, 2016 at 5:00 AM

Visibility: N/A

Pressure: 30.77 "Hg

Humidity: 75%

Dew Point: 27 °F

Location of YekaterinburgLocation

Past Weather in Yekaterinburg — Graph


Yekaterinburg Temperature Yesterday

Maximum temperature yesterday: 37 °F (at 1:00 PM)
Minimum temperature yesterday: 28 °F (at 12:00 AM)
Average temperature yesterday: 34 °F

High & Low Weather Summary for the Past Weeks

High37 °F (Oct 11, 3:00 PM)100% (Oct 11, 4:00 AM)30.86 "Hg (Oct 11, 4:00 AM)
Low12 °F (Oct 17, 4:00 AM)55% (Oct 16, 2:30 PM)29.83 "Hg (Oct 18, 10:30 AM)
Average30 °F86%30.34 "Hg
* Reported Oct 11 4:00 AM — Oct 26 4:30 AM, Yekaterinburg, Weather by CustomWeather, © 2016

Note: Actual official high and low records may vary slightly from our data, if they occured in-between our weather recording intervals... More about our weather records


Yekaterinburg Weather History for the Previous 24 Hours

Scroll right to see more
Time TempWeatherWind HumidityBarometerVisibility
4:30 AM
Wed, Oct 26
34 °FOvercast.10 mph75%30.77 "HgN/A
4:00 AM34 °FOvercast.8 mph75%30.77 "HgN/A
3:30 AM34 °FOvercast.8 mph75%30.77 "HgN/A
3:00 AM34 °FPassing clouds.8 mph81%30.77 "HgN/A
2:30 AM34 °FPassing clouds.8 mph87%30.77 "HgN/A
2:00 AM34 °FPassing clouds.3 mph81%30.77 "HgN/A
1:30 AM34 °FPassing clouds.3 mph87%30.77 "HgN/A
1:00 AM34 °FPassing clouds.3 mph81%30.77 "HgN/A
12:30 AM34 °FPassing clouds.1 mph87%30.77 "HgN/A
12:00 AM34 °FPassing clouds.3 mph87%30.77 "HgN/A
11:30 PM
Tue, Oct 25
34 °FPassing clouds.3 mph87%30.77 "HgN/A
11:00 PM34 °FPassing clouds.1 mph87%30.77 "HgN/A
10:30 PM34 °FPassing clouds.3 mph87%30.77 "HgN/A
10:00 PM34 °FPassing clouds.1 mph87%30.77 "HgN/A
9:30 PM34 °FPassing clouds.No wind87%30.77 "HgN/A
9:00 PM34 °FPassing clouds.3 mph81%30.77 "HgN/A
8:30 PM36 °FPassing clouds.3 mph75%30.77 "HgN/A
8:00 PM34 °FPassing clouds.1 mph75%30.77 "HgN/A
7:30 PM36 °FPassing clouds.3 mph75%30.77 "HgN/A
7:00 PM36 °FPassing clouds.6 mph75%30.77 "HgN/A
6:30 PM36 °FPassing clouds.6 mph75%30.77 "HgN/A
6:00 PM37 °FPassing clouds.6 mph70%30.74 "HgN/A
5:30 PM37 °FPassing clouds.6 mph70%30.74 "HgN/A
5:00 PM37 °FPartly sunny.8 mph70%30.74 "HgN/A
4:30 PM37 °FPartly sunny.10 mph70%30.74 "HgN/A
4:00 PM37 °FPartly sunny.10 mph70%30.74 "HgN/A
3:30 PM37 °FPartly sunny.8 mph70%30.74 "HgN/A
3:00 PM37 °FPartly sunny.8 mph70%30.74 "HgN/A
2:30 PM37 °FPartly sunny.8 mph70%30.74 "HgN/A
2:00 PM37 °FPartly sunny.10 mph70%30.74 "HgN/A
1:30 PM37 °FPartly sunny.10 mph70%30.74 "HgN/A
1:00 PM37 °FPartly sunny.10 mph70%30.74 "HgN/A
12:30 PM36 °FPartly sunny.10 mph75%30.72 "HgN/A
12:00 PM36 °FPartly sunny.8 mph75%30.72 "HgN/A
11:30 AM34 °FPartly sunny.10 mph75%30.72 "HgN/A
11:00 AM34 °FPartly sunny.10 mph75%30.72 "HgN/A
10:30 AM34 °FPartly sunny.10 mph75%30.72 "HgN/A
10:00 AM32 °FPartly sunny.8 mph80%30.72 "HgN/A
9:30 AM32 °FScattered clouds.8 mph80%30.72 "HgN/A
9:00 AM30 °FScattered clouds.8 mph86%30.69 "HgN/A
8:30 AM30 °FScattered clouds.8 mph86%30.69 "HgN/A
8:00 AM30 °FPassing clouds.8 mph86%30.69 "HgN/A
7:30 AM30 °FClear.8 mph80%30.69 "Hg10 mi
7:00 AM30 °FClear.8 mph86%30.69 "Hg10 mi
6:30 AM30 °FPassing clouds.8 mph86%30.69 "HgN/A
6:00 AM30 °FPassing clouds.8 mph86%30.69 "HgN/A
5:30 AM32 °FPassing clouds.8 mph80%30.66 "HgN/A
5:00 AM32 °FPassing clouds.8 mph80%30.66 "HgN/A
Weather by CustomWeather, © 2016

See weather overviewHow to use our weather pages